Weather History for Millville, NJ

Change the Weather History Date:

Sunday, June 29, 2014

  Actual Average Record
Temperature  
Mean Temperature 68 °F -  
Max Temperature 82 °F 83 °F 99 °F (1991)
Min Temperature 55 °F 64 °F 50 °F (1970)
Cooling Degree Days 3    
Growing Degree Days 18 (Base 50)    
Moisture  
Dew Point 59 °F    
Average Humidity 72    
Maximum Humidity 100    
Minimum Humidity 45    
Precipitation  
Precipitation 0.00 in - - ()
Sea Level Pressure  
Sea Level Pressure 30.21 in    
Wind  
Wind Speed 2 mph (SSE)    
Max Wind Speed 9 mph    
Max Gust Speed -    
Visibility 10 miles    
Events      
Averages and records for this station are not official NWS values.
T = Trace of Precipitation, MM = Missing Value Source: NWS Daily Summary

Daily Weather History Graph

Daily Weather History Graph

Search for Another Location

Airport:

Trip Planner

Search our weather history database for the weather conditions in past years. The results will help you decide how hot, cold, wet, or windy it might be!

Date:

Astronomy

Jun. 29, 2014 Rise Set
Actual Time 5:36 AM EDT 8:31 PM EDT
Civil Twilight 5:03 AM EDT 9:03 PM EDT
Nautical Twilight 4:23 AM EDT 9:44 PM EDT
Astronomical Twilight 3:36 AM EDT 10:31 PM EDT
Moon 7:51 AM EDT (6/29) 9:51 PM EDT (6/29)
Length of Visible Light 15h 59m
Length of Day
14h 54m
Waxing Crescent, 5% of the Moon is Illuminated
Jun 29
Waxing Crescent
Jul 5
First Quarter
Jul 12
Full
Jul 18
Last Quarter
Jul 26
New

Hourly Weather History & Observations

Time (EDT) Temp. Heat Index Dew Point Humidity Pressure Visibility Wind Dir Wind Speed Gust Speed Precip Events Conditions
12:54 AM 60.1 °F - 59.0 °F 96% 30.25 in 10.0 mi Calm Calm - N/A   Clear
1:54 AM 59.0 °F - 57.9 °F 96% 30.25 in 10.0 mi Calm Calm - N/A   Clear
2:54 AM 57.0 °F - 57.0 °F 100% 30.26 in 10.0 mi Calm Calm - N/A   Clear
3:54 AM 55.9 °F - 55.0 °F 97% 30.25 in 10.0 mi Calm Calm - N/A   Clear
4:54 AM 55.9 °F - 55.0 °F 97% 30.26 in 10.0 mi Calm Calm - N/A   Clear
5:54 AM 55.0 °F - 54.0 °F 96% 30.26 in 10.0 mi Calm Calm - N/A   Clear
6:54 AM 62.1 °F - 57.9 °F 86% 30.26 in 10.0 mi Calm Calm - N/A   Clear
7:54 AM 69.1 °F - 60.1 °F 73% 30.26 in 10.0 mi SE 3.5 mph - N/A   Clear
8:54 AM 73.9 °F - 59.0 °F 59% 30.26 in 10.0 mi ESE 4.6 mph - N/A   Clear
9:54 AM 77.0 °F - 55.9 °F 48% 30.25 in 10.0 mi SE 4.6 mph - N/A   Clear
10:54 AM 78.1 °F - 57.9 °F 50% 30.24 in 10.0 mi ESE 3.5 mph - N/A   Clear
11:54 AM 80.1 °F 80.7 °F 59.0 °F 48% 30.23 in 10.0 mi ESE 5.8 mph - N/A   Clear
12:54 PM 81.0 °F 81.9 °F 62.1 °F 52% 30.22 in 10.0 mi SSE 8.1 mph - N/A   Mostly Cloudy
1:54 PM 80.1 °F 81.5 °F 63.0 °F 56% 30.21 in 10.0 mi Variable 5.8 mph - N/A   Clear
2:54 PM 79.0 °F - 63.0 °F 58% 30.20 in 10.0 mi SW 9.2 mph - N/A   Clear
3:54 PM 81.0 °F 81.1 °F 57.9 °F 45% 30.19 in 10.0 mi South 8.1 mph - N/A   Clear
4:54 PM 79.0 °F - 60.1 °F 52% 30.17 in 10.0 mi Variable 6.9 mph - N/A   Clear
5:54 PM 78.1 °F - 59.0 °F 52% 30.16 in 10.0 mi Variable 4.6 mph - N/A   Clear
6:54 PM 75.9 °F - 55.9 °F 50% 30.15 in 10.0 mi Variable 4.6 mph - N/A   Clear
7:54 PM 73.0 °F - 61.0 °F 66% 30.15 in 10.0 mi Variable 4.6 mph - N/A   Clear
8:54 PM 70.0 °F - 62.1 °F 76% 30.15 in 10.0 mi SSW 3.5 mph - N/A   Clear
9:54 PM 64.9 °F - 61.0 °F 87% 30.16 in 10.0 mi Calm Calm - N/A   Clear
10:54 PM 64.9 °F - 61.0 °F 87% 30.16 in 10.0 mi Calm Calm - N/A   Clear
11:54 PM 64.0 °F - 62.1 °F 93% 30.14 in 10.0 mi Calm Calm - N/A   Clear